Location: Ahrbeck
(52.4358°N, 9.9906°E)
Time: 19:44:24
(UTC+00:00)

Daily predictions for brighter satellites

Satellite Brightness Start Highest point End
(mag) Time Altitude Azimuth Time Altitude Azimuth Time Altitude Azimuth
Cosmos 2173 Rocket 4.1 15:51:36 10° S 15:57:47 84° W 16:03:58 10° N
Cosmos 921 Rocket 3.1 15:55:20 10° SSW 15:59:43 89° WNW 16:04:12 10° NNE
Cosmos 2278 Rocket 3.4 15:56:48 10° SSE 16:01:11 24° ESE 16:05:35 10° NE
Cosmos 1441 Rocket 3.4 16:02:51 10° NNW 16:06:11 63° W 16:09:30 10° S
Cosmos 1908 Rocket 3.7 16:03:50 10° S 16:08:16 87° W 16:12:45 10° N
MOS 1 Rocket 4.1 16:04:40 10° ESE 16:08:19 26° ENE 16:12:07 10° N
Cosmos 1975 Rocket 3.2 16:05:06 10° N 16:09:23 53° ENE 16:13:40 10° SSE
USA 215 3.5 16:04:36 10° ESE 16:11:10 80° SSW 16:17:45 10° WNW
SL-08 R/B 4.4 16:05:14 10° S 16:11:15 69° E 16:17:19 10° NNE
ARIANE 5 R/B 2.6 16:07:12 10° SE 16:12:00 51° ENE 16:16:51 10° N
ATLAS 5 CENTAUR R/B 2.9 16:08:12 10° NW 16:12:20 48° SW 16:17:23 10° SSE
Cosmos 2263 Rocket 4.3 16:13:24 10° WNW 16:16:46 16° NNW 16:20:10 10° NNE
Cosmos 2344 4.0 16:10:17 10° NW 16:17:27 49° NNE 16:26:21 10° E
Cosmos 1844 Rocket 4.0 16:13:01 10° WSW 16:18:03 34° NW 16:23:09 10° NNE
Cosmos 1802 Rocket 4.2 16:12:38 10° SSW 16:19:05 82° W 16:25:32 10° N
ARIANE 6 FM1 Upper Stage 4.0 16:16:57 10° WNW 16:20:22 26° NNW 16:23:46 10° NE
Cosmos 1862 4.4 16:17:47 10° NNE 16:20:26 19° ENE 16:23:04 10° ESE
Iridium 4 Rocket 3.7 16:15:42 10° SSW 16:20:37 67° W 16:25:10 10° N
SAR-Lupe-4 3.6 16:17:30 10° SSE 16:21:00 54° ENE 16:24:30 10° N
ISS -2.4 16:25:39 10° SSW 16:28:34 28° SSE 16:30:57 13° E
Cosmos 1833 Rocket 3.9 16:23:56 10° NW 16:29:19 46° WSW 16:34:40 10° S
USA 281 4.3 16:24:36 10° E 16:29:22 23° NNE 16:34:18 10° NNW
COSMOS 2406 3.8 16:24:13 10° NNW 16:29:30 37° NE 16:34:44 10° ESE
CZ-2D R/B 2.8 16:27:11 10° SSE 16:30:15 53° ENE 16:33:21 10° N
Cosmos 407 Rocket 3.8 16:26:45 10° S 16:31:38 44° ESE 16:36:30 10° NE
Cosmos 1484 Rocket 4.1 16:29:12 10° S 16:32:31 40° W 16:35:54 10° NNW
Cosmos 2016 Rocket 4.3 16:26:40 10° SSW 16:32:59 78° WNW 16:39:25 10° N
Cosmos 1812 3.3 16:31:12 10° SE 16:33:30 21° E 16:34:33 18° ENE
Tsikada Rocket 4.3 16:28:03 10° NNW 16:34:29 78° W 16:40:49 10° S
IRS-P3 4.2 16:30:16 10° SE 16:35:28 59° ENE 16:40:43 10° N
TIMED 4.4 16:31:31 10° SSW 16:35:45 69° ESE 16:40:01 10° NNE
Cosmos 2084 Rocket 3.6 16:36:25 10° WSW 16:40:35 66° NW 16:44:07 14° NE
ERS-1 4.4 16:35:33 10° SSE 16:40:40 72° ENE 16:45:46 10° NNW
SMAP 3.2 16:37:59 10° SSE 16:42:38 81° WSW 16:47:20 10° NNW
Cosmos 540 Rocket 3.4 16:38:47 10° NNW 16:43:58 90° WSW 16:49:05 10° SSE
Cosmos 44 Rocket 3.9 16:40:06 10° S 16:44:29 37° ESE 16:47:38 18° ENE
SJ 16-02 2.5 16:43:32 10° SSE 16:46:48 21° E 16:47:54 19° ENE
SPOT 1/Viking Rocket 3.8 16:42:28 10° SE 16:47:23 45° ENE 16:52:20 10° N
Cosmos 1869 3.0 16:45:01 10° S 16:48:28 58° E 16:51:56 10° NNE
Cosmos 2297 Rocket 4.3 16:46:34 10° NNW 16:48:34 12° N 16:50:35 10° NNE
YAOGAN 1 3.2 16:45:28 10° SE 16:49:13 31° ENE 16:53:00 10° N
SL-16 R/B 3.0 16:45:27 10° NNE 16:51:40 65° WNW 16:57:50 10° SSW
Cosmos 1763 Rocket 3.9 16:47:10 10° NNW 16:52:23 69° WSW 16:57:29 10° SSE
Meteor 2-3 Rocket 4.4 16:48:02 10° N 16:53:07 32° ENE 16:58:08 10° SE
Landsat 7 3.8 16:50:08 10° SSE 16:54:48 84° WSW 16:59:30 10° NNW
Nadezhda 4 Rocket 4.1 16:51:27 10° N 16:57:37 52° ENE 17:03:40 10° SSE
RESURS DK-1 3.2 16:54:18 10° NW 16:58:12 51° WSW 17:02:05 10° SSE
Spot 4 Rocket 4.2 16:53:28 10° SE 16:58:20 48° ENE 17:03:14 10° N
Cosmos 1140 Rocket 3.8 16:55:32 10° SW 17:00:40 66° WNW 17:05:50 10° NNE
Aureole 3 Rocket 2.4 16:58:30 10° S 17:01:27 50° E 17:03:44 17° NNE
CZ-4C R/B 3.3 16:57:47 10° W 17:02:22 35° NNW 17:06:52 15° NE
Resurs 1-3 4.0 16:59:30 10° SE 17:03:30 39° ENE 17:07:31 10° N
UNK 4.0 17:00:10 10° NNE 17:04:47 72° WNW 17:09:22 10° SSW
CZ-4 R/B 4.2 17:02:42 10° SSE 17:06:38 64° ENE 17:10:35 10° N
SJ-6F 4.3 17:02:47 10° SSE 17:06:42 84° WSW 17:10:39 10° NNW
Cosmos 1400 Rocket 3.2 17:07:29 10° SSE 17:10:57 34° E 17:11:08 34° E
Cosmos 1536 Rocket 3.5 17:06:53 10° N 17:11:18 62° ENE 17:15:39 10° SSE
Cosmos 371 Rocket 4.1 17:07:13 10° SSE 17:11:21 29° ESE 17:12:04 28° E
SAR-Lupe-3 3.8 17:13:47 35° N 17:14:45 79° WNW 17:17:22 10° SSW
Helios 1A Rocket 4.3 17:16:48 17° SE 17:16:48 17° SE 17:17:55 10° SSE
Cosmos 489 Rocket 4.4 17:11:54 10° NNW 17:18:13 77° ENE 17:24:26 10° SSE
Okean 2 Rocket 3.4 17:14:11 10° SSE 17:18:18 42° E 17:20:03 28° NE
CARTOSAT-1 4.3 17:22:06 31° NE 17:22:06 31° NE 17:25:11 10° N
ATLAS CENTAUR R/B 3.2 17:24:23 10° NW 17:26:28 15° NNW 17:27:35 13° N
NOAA 6 4.1 17:21:31 10° SE 17:26:31 54° ENE 17:31:31 10° N
COSMO-SKYMED 1 2.7 17:26:49 42° E 17:26:52 42° E 17:30:47 10° S
SL-12 R/B(2) 4.4 17:19:41 10° SW 17:27:50 82° SE 17:35:47 18° NE
Geosat 4.1 17:25:22 27° ESE 17:27:52 54° NE 17:32:45 10° NNW
Resurs 01 Rocket 2.7 17:30:11 28° NNE 17:30:11 28° NNE 17:32:56 10° N
Cosmos 1943 Rocket 2.2 17:25:34 10° SSW 17:31:12 85° WNW 17:35:17 19° NNE
Timation 2 Rocket 4.2 17:25:44 10° SW 17:32:39 84° NW 17:38:22 16° NNE
Cosmos 841 Rocket 3.4 17:27:55 10° NNW 17:33:12 79° ENE 17:38:28 10° SSE
Cosmos 2058 3.4 17:29:19 10° NNW 17:33:15 59° W 17:37:09 10° S
Cosmos 2251 Rocket 3.4 17:29:50 10° SSW 17:35:07 79° ESE 17:38:36 22° NNE
SJ-7 4.0 17:33:02 10° SSE 17:36:43 89° ENE 17:40:26 10° NNW
Cosmos 2227 Rocket 4.3 17:35:15 10° NNW 17:37:14 12° N 17:38:42 11° NNE
Cosmos 2082 Rocket 2.8 17:32:51 10° NW 17:38:21 56° WSW 17:43:49 10° S
BREEZE-M DEB (TANK) 3.0 17:35:34 10° WSW 17:38:21 53° SSE 17:39:49 38° ESE
ATLAS 2AS CENTAUR R/B 2.8 17:32:54 10° NW 17:39:37 57° NE 17:42:14 36° E
Cosmos 1346 Rocket 3.5 17:36:16 10° N 17:38:39 35° N 17:38:39 35° N
IRAS Rocket 4.3 17:38:15 10° SSE 17:43:48 81° WSW 17:49:22 10° NNW
Cosmos 2278 Rocket 2.3 17:39:03 10° SW 17:44:43 74° WNW 17:48:33 21° NNE
MOS 1 Rocket 4.2 17:41:58 10° S 17:46:09 46° W 17:50:33 10° NNW
Cosmos 1464 Rocket 4.0 17:44:43 10° S 17:51:00 87° W 17:57:17 10° N
CZ-2D R/B 4.2 17:47:46 10° S 17:51:51 54° W 17:56:00 10° NNW
Meteor 2-1 Rocket 4.3 17:46:54 10° S 17:52:41 59° E 17:57:32 15° NNE
Cosmos 2369 Rocket 4.3 17:49:44 10° SSE 17:50:09 12° SSE 17:50:09 12° SSE
Cosmos 1862 4.3 17:52:10 10° NNW 17:55:38 42° W 17:59:04 10° SSW
PSLV R/B 3.7 17:53:36 10° S 17:57:36 64° WSW 18:01:37 10° NNW
ARIANE 6 FM1 Upper Stage 4.4 17:57:25 10° NW 17:59:56 20° N 17:59:56 20° N
Cosmos 2151 Rocket 4.0 17:57:08 10° SSW 18:01:35 63° WNW 18:05:04 16° N
Cosmos 1190 Rocket 4.1 17:57:40 10° SSW 18:02:58 77° WNW 18:05:27 33° NNE
Cosmos 2263 Rocket 4.4 18:01:24 10° NNW 18:03:15 11° N 18:04:12 11° NNE
Cosmos 2034 Rocket 3.9 17:58:43 10° S 18:04:56 83° E 18:11:16 10° NNE
ISS -2.3 18:01:42 10° WSW 18:03:52 36° WSW 18:03:52 36° WSW
Cosmos 1812 4.5 18:03:34 10° WSW 18:05:54 21° WNW 18:06:21 21° NW
Cosmos 676 Rocket 3.9 18:00:45 10° SSW 18:06:02 77° ESE 18:06:42 66° NE
SKYMED 2 4.0 18:03:52 24° N 18:06:23 60° WNW 18:10:40 10° SSW
Okean 1 Rocket 3.0 18:03:49 10° SSW 18:08:13 80° W 18:08:25 77° NW
Cosmos 1656 Rocket 3.8 18:03:18 10° S 18:08:00 52° SE 18:08:00 52° SE
Cosmos 220 Rocket 4.2 18:07:44 10° NNW 18:11:16 61° NW 18:11:16 61° NW
USA 281 3.1 18:11:29 52° ESE 18:12:54 66° NE 18:19:26 10° NNW
Sich 1 Rocket 3.8 18:09:28 10° SSW 18:14:00 71° WNW 18:14:56 53° NNW
COSMOS 2406 3.8 18:08:29 10° NW 18:14:01 55° WSW 18:19:01 13° S
Cosmos 1954 Rocket 4.1 18:10:08 10° SSW 18:15:24 74° WNW 18:16:53 47° N
Cosmos 1092 Rocket 3.9 18:09:23 10° N 18:15:42 89° E 18:21:54 10° S
Cosmos 1932 4.4 18:09:52 10° SSW 18:16:08 61° SE 18:16:22 61° ESE
Cosmos 2026 Rocket 4.0 18:14:35 10° NNW 18:20:41 77° W 18:26:49 10° S
SJ 16-02 2.0 18:20:23 10° SW 18:24:29 52° WNW 18:24:29 52° WNW
YAOGAN 1 4.1 18:21:07 10° SSW 18:25:02 35° W 18:28:58 10° NNW
Cosmos 44 Rocket 3.9 18:21:05 10° WSW 18:25:48 50° NW 18:26:14 49° NNW
Cosmos 2344 4.0 18:24:37 10° NW 18:32:26 72° SW 18:38:34 27° SSE
Cosmos 2297 Rocket 4.1 18:30:47 10° NNW 18:33:09 18° N 18:33:09 18° N
Meteor 2-3 Rocket 4.5 18:31:04 10° NNW 18:36:35 51° W 18:42:00 10° S
Cosmos 371 Rocket 4.4 18:46:45 10° SW 18:50:35 42° W 18:50:35 42° W
CZ-4C R/B 3.6 18:47:08 10° NW 18:51:49 31° N 18:51:49 31° N
Resurs 01 Rocket 3.9 19:07:36 21° NW 19:07:36 21° NW 19:09:24 10° NNW
Cosmos 1943 Rocket 4.0 19:11:15 10° W 19:15:44 24° NW 19:16:48 23° NNW
Cosmos 2278 Rocket 4.2 19:25:25 10° W 19:29:47 22° NNW 19:30:23 22° NNW
ATLAS 2AS CENTAUR R/B 3.4 19:24:01 10° NW 19:29:41 47° W 19:29:41 47° W
